Home > Weather > Sevierville > Past weeks

Flag for USA Past Weather in Sevierville, Tennessee, USA — Yesterday and Last 2 Weeks

Now
80 °F

Passing clouds.


Feels Like: 83 °F
Forecast: 68 / 91 °F
Wind: No wind

Location: McGhee Tyson Airport

Current Time: Jun 25, 2016 at 10:17:51 AM

Latest Report: Jun 25, 2016 at 9:53 AM


Visibility: 7 mi

Pressure: 30.11 "Hg

Humidity: 69%

Dew Point: 69 °F

Location of SeviervilleLocation

Past Weather in Sevierville — Graph

°F

Sevierville Temperature Yesterday

Maximum temperature yesterday: 87 °F (at 3:53 PM)
Minimum temperature yesterday: 71 °F (at 6:56 AM)
Average temperature yesterday: 79 °F

High & Low Weather Summary for the Past Weeks

 TemperatureHumidityPressure
High94 °F (Jun 23, 3:53 PM)93% (Jun 15, 2:53 AM)30.33 "Hg (Jun 15, 2:53 AM)
Low64 °F (Jun 11, 6:53 AM)29% (Jun 11, 4:53 PM)29.77 "Hg (Jun 16, 6:53 PM)
Average80 °F62%30.01 "Hg
* Reported Jun 10 8:53 AM — Jun 25 8:53 AM, Sevierville, Weather by CustomWeather, © 2016

Note: Actual official high and low records may vary slightly from our data, if they occured in-between our weather recording intervals... More about our weather records

Advertising

Sevierville Weather History for the Previous 24 Hours

Scroll right to see more
 ConditionsComfort  
Time TempWeatherWind HumidityBarometerVisibility
8:53 AM
Sat, Jun 25
73 °FFog.No wind90%30.10 "Hg2 mi
8:02 AM72 °FFog.3 mph91%30.12 "Hg1 mi
6:53 AM70 °FPassing clouds.No wind90%30.06 "Hg7 mi
5:53 AM70 °FPassing clouds.No wind90%30.05 "Hg10 mi
4:53 AM69 °FPassing clouds.No wind93%30.04 "Hg10 mi
3:53 AM71 °FPassing clouds.No wind90%30.03 "Hg10 mi
2:53 AM71 °FPassing clouds.No wind90%30.03 "Hg10 mi
1:53 AM73 °FPassing clouds.3 mph84%30.03 "Hg10 mi
12:53 AM74 °FPassing clouds.No wind82%30.03 "Hg10 mi
11:53 PM
Fri, Jun 24
76 °FPassing clouds.No wind74%30.02 "Hg10 mi
10:53 PM78 °FPassing clouds.No wind69%30.02 "Hg10 mi
9:53 PM81 °FPassing clouds.5 mph62%30.01 "Hg10 mi
8:53 PM84 °FPassing clouds.6 mph55%30.01 "Hg10 mi
7:53 PM85 °FScattered clouds.8 mph65%30.00 "Hg10 mi
6:53 PM86 °FScattered clouds.10 mph59%29.99 "Hg10 mi
5:53 PM87 °FBroken clouds.10 mph57%30.00 "Hg10 mi
4:53 PM87 °FScattered clouds.7 mph55%30.00 "Hg10 mi
3:53 PM87 °FBroken clouds.8 mph55%30.02 "Hg10 mi
2:53 PM86 °FBroken clouds.12 mph57%30.02 "Hg10 mi
1:53 PM84 °FBroken clouds.9 mph59%30.03 "Hg10 mi
12:53 PM83 °FBroken clouds.9 mph59%30.03 "Hg10 mi
11:53 AM81 °FCloudy.9 mph65%30.03 "Hg10 mi
Weather by CustomWeather, © 2016

See weather overviewHow to use our weather pages